Weather History for Maxwell AFB, AL

Change the Weather History Date:

Friday, August 23, 2013

  Actual Average Record
Temperature  
Mean Temperature 80 °F -  
Max Temperature 91 °F 90 °F 98 °F (2011)
Min Temperature 71 °F 71 °F 67 °F (2012)
Cooling Degree Days 16    
Growing Degree Days 30 (Base 50)    
Moisture  
Dew Point 72 °F    
Average Humidity 77    
Maximum Humidity 99    
Minimum Humidity 52    
Precipitation  
Precipitation 0.18 in - - ()
Sea Level Pressure  
Sea Level Pressure 30.03 in    
Wind  
Wind Speed 4 mph (NNE)    
Max Wind Speed 14 mph    
Max Gust Speed 21 mph    
Visibility 9 miles    
Events Rain    
Averages and records for this station are not official NWS values.
T = Trace of Precipitation, MM = Missing Value Source: NWS Daily Summary

Daily Weather History Graph

Daily Weather History Graph

Search for Another Location

Airport:

Trip Planner

Search our weather history database for the weather conditions in past years. The results will help you decide how hot, cold, wet, or windy it might be!

Date:

Astronomy

Aug. 23, 2013 Rise Set
Actual Time 6:14 AM CDT 7:20 PM CDT
Civil Twilight 5:49 AM CDT 7:45 PM CDT
Nautical Twilight 5:19 AM CDT 8:16 PM CDT
Astronomical Twilight 4:48 AM CDT 8:47 PM CDT
Moon 8:54 PM CDT (8/23) 8:56 AM CDT (8/23)
Length of Visible Light 13h 56m
Length of Day
13h 05m
Waning Gibbous, 91% of the Moon is Illuminated
Aug 23
Waning Gibbous
Aug 28
Last Quarter
Sep 5
New
Sep 12
First Quarter
Sep 19
Full

Hourly Weather History & Observations

Time (CDT) Temp. Heat Index Dew Point Humidity Pressure Visibility Wind Dir Wind Speed Gust Speed Precip Events Conditions
12:58 AM 73.9 °F - 70.9 °F 90% 30.06 in 10.0 mi Calm Calm - N/A   Clear
1:58 AM 73.6 °F - 70.3 °F 90% 30.05 in 10.0 mi South 3.5 mph - N/A   Clear
2:58 AM 72.5 °F - 69.8 °F 91% 30.04 in 10.0 mi South 2.3 mph - N/A   Clear
3:58 AM 71.4 °F - 69.4 °F 93% 30.04 in 10.0 mi Calm Calm - N/A   Clear
4:58 AM 71.1 °F - 69.8 °F 96% 30.04 in 10.0 mi North 2.3 mph - N/A   Clear
5:58 AM 71.2 °F - 70.5 °F 98% 30.05 in 10.0 mi North 3.5 mph - N/A   Clear
6:58 AM 72.0 °F - 71.6 °F 99% 30.07 in 10.0 mi NNW 4.6 mph - N/A   Clear
7:58 AM 75.9 °F - 72.5 °F 89% 30.09 in 10.0 mi NNE 1.2 mph - N/A   Clear
8:58 AM 78.8 °F - 72.3 °F 80% 30.08 in 10.0 mi NNE 4.6 mph - N/A   Clear
9:56 AM 82.4 °F 88.2 °F 73.4 °F 74% 30.09 in 10.0 mi NNE 3.5 mph - N/A   Clear
9:58 AM 81.7 °F 86.9 °F 73.2 °F 75% 30.09 in 10.0 mi Variable 4.6 mph - N/A   Clear
10:58 AM 83.3 °F 88.4 °F 71.8 °F 68% 30.08 in 10.0 mi Variable 3.5 mph - N/A   Clear
11:58 AM 85.6 °F 91.1 °F 71.4 °F 62% 30.06 in 10.0 mi Variable 5.8 mph - N/A   Clear
12:20 PM 86.0 °F 91.8 °F 71.6 °F 62% 30.05 in 10.0 mi Variable 4.6 mph - N/A   Light Drizzle
12:29 PM 87.8 °F 93.8 °F 71.6 °F 58% 30.05 in 10.0 mi Variable 4.6 mph - N/A   Clear
12:58 PM 87.6 °F 94.3 °F 72.3 °F 60% 30.04 in 10.0 mi ENE 8.1 mph - 0.00 in   Clear
1:58 PM 89.6 °F 96.2 °F 71.4 °F 55% 30.01 in 10.0 mi North 8.1 mph - N/A   Clear
2:58 PM 89.2 °F 95.9 °F 71.8 °F 56% 30.01 in 10.0 mi Variable 4.6 mph - N/A   Clear
3:58 PM 90.7 °F 96.9 °F 70.7 °F 52% 29.99 in 10.0 mi Variable 1.2 mph - N/A   Scattered Clouds
4:58 PM 89.1 °F 95.0 °F 71.2 °F 55% 29.99 in 10.0 mi SSE 6.9 mph - N/A   Overcast
5:18 PM 89.6 °F 96.2 °F 71.6 °F 55% 29.98 in 10.0 mi South 4.6 mph - N/A Rain Light Rain
5:33 PM 82.4 °F 88.2 °F 73.4 °F 74% 29.98 in 1.0 mi WNW 11.5 mph 20.7 mph N/A Rain Heavy Rain
5:38 PM 80.6 °F 84.6 °F 71.6 °F 74% 29.98 in 0.8 mi WNW 13.8 mph - N/A Rain Heavy Rain
5:43 PM 80.6 °F 84.6 °F 71.6 °F 74% 29.98 in 2.5 mi West 8.1 mph - N/A Rain Light Rain
5:48 PM 78.8 °F - 71.6 °F 78% 29.98 in 7.0 mi West 6.9 mph - N/A Rain Light Rain
5:52 PM 80.6 °F 84.6 °F 71.6 °F 74% 29.98 in 10.0 mi Variable 4.6 mph - N/A   Overcast
5:58 PM 80.2 °F 84.2 °F 72.1 °F 76% 29.99 in 10.0 mi Variable 2.3 mph - 0.18 in   Overcast
6:58 PM 79.0 °F - 75.4 °F 89% 30.00 in 10.0 mi NNE 4.6 mph - N/A   Clear
7:58 PM 77.7 °F - 74.5 °F 90% 30.02 in 10.0 mi Calm Calm - N/A   Mostly Cloudy
8:58 PM 77.0 °F - 74.7 °F 92% 30.03 in 10.0 mi NNE 4.6 mph - N/A   Clear
9:58 PM 78.4 °F - 73.4 °F 84% 30.05 in 10.0 mi East 2.3 mph - N/A   Clear
10:58 PM 77.2 °F - 73.2 °F 88% 30.06 in 10.0 mi SE 4.6 mph - N/A   Clear
11:58 PM 77.4 °F - 72.7 °F 85% 30.04 in 10.0 mi South 2.3 mph - N/A   Partly Cloudy